Back to catalog

FENGYUN 1C DEB

AliveSSO
NORAD 38491·DEBRIS·🇨🇳 China

Launched May 10, 1999 from Taiyuan Satellite Launch Center

Loading…

Next Passes (next 24 hours)

TLE

AgingSource: Space-Track

Epoch: Sep 4, 2026, 06:20 UTC

1 38491U 99025ESA 26247.26441806  .00000314  00000-0  20771-3 0  9990
2 38491  98.9362 251.0814 0225410  15.0775 345.6964 13.96679907701668

Track FENGYUN 1C DEB in real time with AllMySat

Download on the App Store